Volver al catálogo

STARLINK-36335

ActivoComunicacionesSSO
NORAD 68015·PAYLOAD·🇺🇸 United States

Lanzado Mar 1, 2026 desde Vandenberg Space Force Base

Loading…

Próximos Pases (próximas 24 horas)

TLE

ActualizadoSource: CelesTrak SupGP

Época: Sep 14, 2026, 21:17 UTC

1 68015C 26040A   26257.88729167 -.00036635  00000+0 -11372-2 0  2579
2 68015  97.2847 205.2268 0001766  91.5740 227.0066 15.33457627    17

Sigue STARLINK-36335 en tiempo real con AllMySat

Download on the App Store